Wetterdaten: Mittwoch, 25.02.2015
Datum Zeit Auen-Temp. Temp. -10 cm Luftfeuchte Luftfeuchte Luftdruck Regen Wind Richtung Richtung Taupunkt Windchill Windben
25.02.2015 00:00 -2,5 C 1,0 C 79 % 79 % 1018,2 hPa 0,0 l/m 0,5 km/h (0 Bft) SO 135 -5,6 C -3,7 C 0,0 km/h (0 Bft)
25.02.2015 00:05 -2,1 C 1,0 C 79 % 79 % 1018,2 hPa 0,0 l/m 0,6 km/h (0 Bft) SW 225 -5,2 C -3,5 C 0,0 km/h (0 Bft)
25.02.2015 00:10 -2,0 C 1,0 C 78 % 78 % 1018,2 hPa 0,0 l/m 0,5 km/h (0 Bft) O-NO 67 -5,3 C -2,9 C 0,0 km/h (0 Bft)
25.02.2015 00:15 -2,2 C 1,0 C 78 % 78 % 1018,3 hPa 0,0 l/m 0,5 km/h (0 Bft) NW 315 -5,5 C -2,9 C 0,0 km/h (0 Bft)
25.02.2015 00:20 -2,4 C 1,0 C 78 % 78 % 1018,3 hPa 0,0 l/m 0,0 km/h (0 Bft) N-NO 22 -5,7 C -3,1 C 0,0 km/h (0 Bft)
25.02.2015 00:25 -2,4 C 1,0 C 78 % 78 % 1018,3 hPa 0,0 l/m 0,0 km/h (0 Bft) N-NO 22 -5,7 C -3,1 C 0,0 km/h (0 Bft)
25.02.2015 00:30 -2,3 C 1,0 C 78 % 78 % 1018,3 hPa 0,0 l/m 0,0 km/h (0 Bft) O-NO 67 -5,6 C -3,0 C 0,0 km/h (0 Bft)
25.02.2015 00:35 -2,2 C 1,0 C 78 % 78 % 1018,1 hPa 0,0 l/m 0,0 km/h (0 Bft) O-NO 67 -5,5 C -2,9 C 0,0 km/h (0 Bft)
25.02.2015 00:40 -1,9 C 1,0 C 79 % 79 % 1018,1 hPa 0,0 l/m 0,0 km/h (0 Bft) SO 135 -5,0 C -2,8 C 0,0 km/h (0 Bft)
25.02.2015 00:45 -1,5 C 1,0 C 79 % 79 % 1018,1 hPa 0,0 l/m 0,2 km/h (0 Bft) O-SO 112 -4,7 C -2,5 C 0,0 km/h (0 Bft)
25.02.2015 00:50 -1,3 C 1,0 C 79 % 79 % 1018,1 hPa 0,0 l/m 0,5 km/h (0 Bft) S-SW 202 -4,5 C -2,1 C 3,7 km/h (1 Bft)
25.02.2015 00:55 -1,1 C 1,0 C 79 % 79 % 1018,6 hPa 0,0 l/m 0,6 km/h (0 Bft) SO 135 -4,3 C -1,9 C 2,4 km/h (1 Bft)
25.02.2015 01:00 -1,3 C 1,0 C 78 % 78 % 1018,6 hPa 0,0 l/m 0,5 km/h (0 Bft) O-NO 67 -4,6 C -1,8 C 4,0 km/h (1 Bft)
25.02.2015 01:05 -1,3 C 1,1 C 78 % 78 % 1018,6 hPa 0,0 l/m 0,5 km/h (0 Bft) S 180 -4,6 C -1,8 C 0,0 km/h (0 Bft)
25.02.2015 01:10 -1,1 C 1,1 C 78 % 78 % 1018,6 hPa 0,0 l/m 0,5 km/h (0 Bft) O-SO 112 -4,4 C -1,8 C 4,3 km/h (1 Bft)
25.02.2015 01:15 -1,0 C 1,1 C 78 % 78 % 1018,6 hPa 0,0 l/m 0,8 km/h (0 Bft) SW 225 -4,3 C -1,7 C 3,2 km/h (1 Bft)
25.02.2015 01:20 -0,7 C 1,1 C 78 % 78 % 1018,6 hPa 0,0 l/m 1,6 km/h (1 Bft) O-NO 67 -4,0 C -1,5 C 2,7 km/h (1 Bft)
25.02.2015 01:25 -0,6 C 1,1 C 77 % 77 % 1018,6 hPa 0,0 l/m 2,3 km/h (1 Bft) SO 135 -4,1 C -1,3 C 0,0 km/h (0 Bft)
25.02.2015 01:30 -0,6 C 1,1 C 77 % 77 % 1018,6 hPa 0,0 l/m 1,6 km/h (1 Bft) S 180 -4,1 C -1,2 C 5,1 km/h (1 Bft)
25.02.2015 01:35 -0,5 C 1,1 C 77 % 77 % 1018,8 hPa 0,0 l/m 1,0 km/h (0 Bft) SO 135 -4,0 C -1,2 C 0,0 km/h (0 Bft)
25.02.2015 01:40 -0,6 C 1,1 C 76 % 76 % 1018,8 hPa 0,0 l/m 0,5 km/h (0 Bft) SO 135 -4,3 C -1,2 C 0,0 km/h (0 Bft)
25.02.2015 01:45 -0,7 C 1,1 C 76 % 76 % 1018,8 hPa 0,0 l/m 0,2 km/h (0 Bft) S-SO 157 -4,4 C -1,3 C 0,0 km/h (0 Bft)
25.02.2015 01:50 -0,5 C 1,1 C 76 % 76 % 1018,8 hPa 0,0 l/m 0,5 km/h (0 Bft) O 90 -4,2 C -1,2 C 1,9 km/h (1 Bft)
25.02.2015 01:55 -0,6 C 1,1 C 76 % 76 % 1018,6 hPa 0,0 l/m 0,8 km/h (0 Bft) SW 225 -4,3 C -1,2 C 4,5 km/h (1 Bft)
25.02.2015 02:00 -0,2 C 1,1 C 76 % 76 % 1018,6 hPa 0,0 l/m 2,3 km/h (1 Bft) S 180 -3,9 C -1,0 C 6,9 km/h (2 Bft)
25.02.2015 02:05 -0,2 C 1,1 C 76 % 76 % 1018,6 hPa 0,0 l/m 3,1 km/h (1 Bft) SW 225 -3,9 C -1,5 C 4,5 km/h (1 Bft)
25.02.2015 02:10 -0,3 C 1,1 C 75 % 75 % 1018,6 hPa 0,0 l/m 2,3 km/h (1 Bft) SO 135 -4,2 C -0,9 C 0,0 km/h (0 Bft)
25.02.2015 02:15 -0,2 C 1,1 C 75 % 75 % 1018,8 hPa 0,0 l/m 1,6 km/h (1 Bft) S 180 -4,1 C -0,9 C 0,0 km/h (0 Bft)
25.02.2015 02:20 -0,1 C 1,1 C 75 % 75 % 1018,8 hPa 0,0 l/m 1,9 km/h (1 Bft) S-SW 202 -4,0 C -0,8 C 5,3 km/h (1 Bft)
25.02.2015 02:25 -0,2 C 1,1 C 74 % 74 % 1018,8 hPa 0,0 l/m 1,9 km/h (1 Bft) S-SO 157 -4,3 C -0,8 C 0,0 km/h (0 Bft)
25.02.2015 02:30 -0,1 C 1,1 C 74 % 74 % 1018,8 hPa 0,0 l/m 2,4 km/h (1 Bft) S 180 -4,2 C -0,8 C 1,9 km/h (1 Bft)
25.02.2015 02:35 -0,1 C 1,1 C 74 % 74 % 1018,8 hPa 0,0 l/m 2,3 km/h (1 Bft) S-SO 157 -4,2 C -0,8 C 0,0 km/h (0 Bft)
25.02.2015 02:40 -0,1 C 1,1 C 74 % 74 % 1018,8 hPa 0,0 l/m 2,3 km/h (1 Bft) S 180 -4,2 C -0,7 C 7,1 km/h (2 Bft)
25.02.2015 02:45 0,0 C 1,1 C 73 % 73 % 1018,8 hPa 0,0 l/m 2,6 km/h (1 Bft) S-SW 202 -4,2 C -0,9 C 3,2 km/h (1 Bft)
25.02.2015 02:50 -0,1 C 1,1 C 73 % 73 % 1018,8 hPa 0,0 l/m 2,1 km/h (1 Bft) S-SO 157 -4,3 C -0,7 C 0,0 km/h (0 Bft)
25.02.2015 02:55 -0,2 C 1,1 C 73 % 73 % 1018,7 hPa 0,0 l/m 1,3 km/h (1 Bft) SO 135 -4,4 C -0,8 C 0,0 km/h (0 Bft)
25.02.2015 03:00 -0,4 C 1,1 C 73 % 73 % 1018,7 hPa 0,0 l/m 0,2 km/h (0 Bft) SO 135 -4,6 C -0,9 C 0,0 km/h (0 Bft)
25.02.2015 03:05 -0,4 C 1,1 C 74 % 74 % 1018,7 hPa 0,0 l/m 0,2 km/h (0 Bft) SO 135 -4,5 C -0,9 C 0,0 km/h (0 Bft)
25.02.2015 03:10 -0,5 C 1,1 C 74 % 74 % 1018,7 hPa 0,0 l/m 0,0 km/h (0 Bft) SW 225 -4,5 C -1,0 C 2,4 km/h (1 Bft)
25.02.2015 03:15 -0,3 C 1,1 C 74 % 74 % 1018,8 hPa 0,0 l/m 0,3 km/h (0 Bft) SW 225 -4,4 C -1,0 C 4,8 km/h (1 Bft)
25.02.2015 03:20 -0,1 C 1,1 C 74 % 74 % 1018,8 hPa 0,0 l/m 0,6 km/h (0 Bft) SW 225 -4,2 C -0,9 C 2,1 km/h (1 Bft)
25.02.2015 03:25 -0,1 C 1,1 C 74 % 74 % 1018,8 hPa 0,0 l/m 0,6 km/h (0 Bft) S-SO 157 -4,2 C -0,9 C 0,0 km/h (0 Bft)
25.02.2015 03:30 -0,3 C 1,1 C 74 % 74 % 1018,8 hPa 0,0 l/m 0,3 km/h (0 Bft) S-SO 157 -4,4 C -0,9 C 0,0 km/h (0 Bft)
25.02.2015 03:35 -0,2 C 1,1 C 74 % 74 % 1018,8 hPa 0,0 l/m 0,5 km/h (0 Bft) SO 135 -4,3 C -0,9 C 0,0 km/h (0 Bft)
25.02.2015 03:40 -0,3 C 1,1 C 74 % 74 % 1018,8 hPa 0,0 l/m 0,5 km/h (0 Bft) SO 135 -4,4 C -0,9 C 0,0 km/h (0 Bft)
25.02.2015 03:45 -0,2 C 1,1 C 74 % 74 % 1018,8 hPa 0,0 l/m 0,3 km/h (0 Bft) S-SW 202 -4,3 C -0,9 C 2,4 km/h (1 Bft)
25.02.2015 03:50 -0,4 C 1,1 C 74 % 74 % 1018,8 hPa 0,0 l/m 0,2 km/h (0 Bft) S-SO 157 -4,5 C -0,9 C 0,0 km/h (0 Bft)
25.02.2015 03:55 -0,5 C 1,1 C 74 % 74 % 1018,9 hPa 0,0 l/m 0,2 km/h (0 Bft) S-SO 157 -4,5 C -0,9 C 0,0 km/h (0 Bft)
25.02.2015 04:00 -0,4 C 1,1 C 75 % 75 % 1018,9 hPa 0,0 l/m 0,5 km/h (0 Bft) SO 135 -4,3 C -1,0 C 0,0 km/h (0 Bft)
25.02.2015 04:05 -0,3 C 1,1 C 75 % 75 % 1018,9 hPa 0,0 l/m 0,5 km/h (0 Bft) S 180 -4,2 C -1,0 C 0,0 km/h (0 Bft)
25.02.2015 04:10 -0,3 C 1,1 C 75 % 75 % 1018,9 hPa 0,0 l/m 0,3 km/h (0 Bft) S-SO 157 -4,2 C -0,9 C 0,0 km/h (0 Bft)
25.02.2015 04:15 -0,4 C 1,1 C 75 % 75 % 1018,9 hPa 0,0 l/m 0,5 km/h (0 Bft) S-SO 157 -4,3 C -0,9 C 0,0 km/h (0 Bft)
25.02.2015 04:20 -0,5 C 1,1 C 75 % 75 % 1018,9 hPa 0,0 l/m 0,5 km/h (0 Bft) S-SO 157 -4,4 C -1,0 C 2,4 km/h (1 Bft)
25.02.2015 04:25 -0,4 C 1,1 C 75 % 75 % 1018,9 hPa 0,0 l/m 0,3 km/h (0 Bft) SO 135 -4,3 C -1,0 C 0,0 km/h (0 Bft)
25.02.2015 04:30 -0,5 C 1,1 C 75 % 75 % 1018,9 hPa 0,0 l/m 0,5 km/h (0 Bft) S-SW 202 -4,4 C -1,1 C 3,1 km/h (1 Bft)
25.02.2015 04:35 -0,2 C 1,1 C 75 % 75 % 1019,0 hPa 0,0 l/m 1,4 km/h (1 Bft) S-SW 202 -4,1 C -1,0 C 5,3 km/h (1 Bft)
25.02.2015 04:40 -0,3 C 1,1 C 74 % 74 % 1019,0 hPa 0,0 l/m 2,4 km/h (1 Bft) S 180 -4,4 C -0,9 C 0,0 km/h (0 Bft)
25.02.2015 04:45 -0,5 C 1,1 C 74 % 74 % 1019,0 hPa 0,0 l/m 1,6 km/h (1 Bft) S-SO 157 -4,5 C -1,0 C 0,0 km/h (0 Bft)
25.02.2015 04:50 -0,6 C 1,1 C 75 % 75 % 1019,0 hPa 0,0 l/m 0,0 km/h (0 Bft) S-SO 157 -4,5 C -1,2 C 0,0 km/h (0 Bft)
25.02.2015 04:55 -0,6 C 1,1 C 75 % 75 % 1019,1 hPa 0,0 l/m 0,0 km/h (0 Bft) S 180 -4,5 C -1,3 C 0,0 km/h (0 Bft)
25.02.2015 05:00 -0,5 C 1,1 C 75 % 75 % 1019,1 hPa 0,0 l/m 0,2 km/h (0 Bft) S-SO 157 -4,4 C -1,3 C 0,0 km/h (0 Bft)
25.02.2015 05:05 -0,5 C 1,1 C 75 % 75 % 1019,1 hPa 0,0 l/m 0,2 km/h (0 Bft) S-SO 157 -4,4 C -1,2 C 0,0 km/h (0 Bft)
25.02.2015 05:10 -0,5 C 1,1 C 75 % 75 % 1019,1 hPa 0,0 l/m 0,0 km/h (0 Bft) S 180 -4,4 C -1,3 C 0,0 km/h (0 Bft)
25.02.2015 05:15 -0,9 C 1,1 C 75 % 75 % 1019,3 hPa 0,0 l/m 0,0 km/h (0 Bft) S-SO 157 -4,8 C -1,3 C 0,0 km/h (0 Bft)
25.02.2015 05:20 -0,6 C 1,1 C 75 % 75 % 1019,3 hPa 0,0 l/m 0,2 km/h (0 Bft) S 180 -4,5 C -1,4 C 1,6 km/h (1 Bft)
25.02.2015 05:25 -0,6 C 1,1 C 75 % 75 % 1019,3 hPa 0,0 l/m 0,5 km/h (0 Bft) SO 135 -4,5 C -1,3 C 0,0 km/h (0 Bft)
25.02.2015 05:30 -0,5 C 1,1 C 75 % 75 % 1019,3 hPa 0,0 l/m 0,6 km/h (0 Bft) S-SO 157 -4,4 C -1,2 C 0,0 km/h (0 Bft)
25.02.2015 05:35 -0,7 C 1,1 C 76 % 76 % 1019,4 hPa 0,0 l/m 0,3 km/h (0 Bft) SO 135 -4,4 C -1,1 C 0,0 km/h (0 Bft)
25.02.2015 05:40 -1,1 C 1,1 C 76 % 76 % 1019,4 hPa 0,0 l/m 0,2 km/h (0 Bft) SO 135 -4,8 C -1,4 C 0,0 km/h (0 Bft)
25.02.2015 05:45 -1,2 C 1,1 C 76 % 76 % 1019,4 hPa 0,0 l/m 0,0 km/h (0 Bft) SO 135 -4,9 C -1,6 C 0,0 km/h (0 Bft)
25.02.2015 05:50 -1,2 C 1,1 C 76 % 76 % 1019,4 hPa 0,0 l/m 0,0 km/h (0 Bft) S-SO 157 -4,9 C -1,8 C 0,0 km/h (0 Bft)
25.02.2015 05:55 -1,2 C 1,1 C 76 % 76 % 1019,6 hPa 0,0 l/m 0,2 km/h (0 Bft) W-SW 247 -4,9 C -1,8 C 0,0 km/h (0 Bft)
25.02.2015 06:00 -1,3 C 1,1 C 76 % 76 % 1019,6 hPa 0,0 l/m 0,2 km/h (0 Bft) S 180 -5,0 C -2,0 C 0,0 km/h (0 Bft)
25.02.2015 06:05 -1,2 C 1,1 C 77 % 77 % 1019,6 hPa 0,0 l/m 0,0 km/h (0 Bft) SO 135 -4,7 C -2,0 C 0,0 km/h (0 Bft)
25.02.2015 06:10 -1,4 C 1,1 C 77 % 77 % 1019,6 hPa 0,0 l/m 0,0 km/h (0 Bft) S-SO 157 -4,9 C -2,0 C 0,0 km/h (0 Bft)
25.02.2015 06:15 -1,4 C 1,1 C 77 % 77 % 1019,7 hPa 0,0 l/m 0,0 km/h (0 Bft) SO 135 -4,9 C -2,1 C 0,0 km/h (0 Bft)
25.02.2015 06:20 -1,0 C 1,1 C 77 % 77 % 1019,7 hPa 0,0 l/m 0,5 km/h (0 Bft) W-SW 247 -4,5 C -1,8 C 0,0 km/h (0 Bft)
25.02.2015 06:25 -1,1 C 1,1 C 77 % 77 % 1019,7 hPa 0,0 l/m 0,5 km/h (0 Bft) S 180 -4,6 C -1,8 C 0,0 km/h (0 Bft)
25.02.2015 06:30 -0,7 C 1,1 C 77 % 77 % 1019,7 hPa 0,0 l/m 1,1 km/h (1 Bft) SW 225 -4,2 C -1,6 C 2,1 km/h (1 Bft)
25.02.2015 06:35 -0,5 C 1,1 C 77 % 77 % 1019,8 hPa 0,0 l/m 1,8 km/h (1 Bft) S 180 -4,0 C -1,4 C 3,7 km/h (1 Bft)
25.02.2015 06:40 -0,6 C 1,1 C 77 % 77 % 1019,8 hPa 0,0 l/m 1,3 km/h (1 Bft) W-SW 247 -4,1 C -1,2 C 0,0 km/h (0 Bft)
25.02.2015 06:45 -0,7 C 1,1 C 77 % 77 % 1019,8 hPa 0,0 l/m 0,8 km/h (0 Bft) W-SW 247 -4,2 C -1,3 C 0,0 km/h (0 Bft)
25.02.2015 06:50 -0,7 C 1,1 C 77 % 77 % 1019,8 hPa 0,0 l/m 0,8 km/h (0 Bft) W-SW 247 -4,2 C -1,3 C 1,6 km/h (1 Bft)
25.02.2015 06:55 -0,6 C 1,1 C 77 % 77 % 1019,9 hPa 0,0 l/m 1,1 km/h (1 Bft) S 180 -4,1 C -1,3 C 0,0 km/h (0 Bft)
25.02.2015 07:00 -0,6 C 1,1 C 77 % 77 % 1019,9 hPa 0,0 l/m 1,4 km/h (1 Bft) SW 225 -4,1 C -1,2 C 2,3 km/h (1 Bft)
25.02.2015 07:05 -0,7 C 1,1 C 76 % 76 % 1019,9 hPa 0,0 l/m 1,0 km/h (0 Bft) S-SW 202 -4,4 C -1,3 C 0,0 km/h (0 Bft)
25.02.2015 07:10 -0,8 C 1,1 C 76 % 76 % 1019,9 hPa 0,0 l/m 0,2 km/h (0 Bft) S-SW 202 -4,5 C -1,4 C 0,0 km/h (0 Bft)
25.02.2015 07:15 -0,7 C 1,1 C 76 % 76 % 1020,0 hPa 0,0 l/m 0,3 km/h (0 Bft) S-SW 202 -4,4 C -1,4 C 1,6 km/h (1 Bft)
25.02.2015 07:20 -0,7 C 1,1 C 76 % 76 % 1020,0 hPa 0,0 l/m 0,8 km/h (0 Bft) S 180 -4,4 C -1,4 C 2,1 km/h (1 Bft)
25.02.2015 07:25 -0,7 C 1,1 C 76 % 76 % 1020,0 hPa 0,0 l/m 0,6 km/h (0 Bft) S 180 -4,4 C -1,4 C 0,0 km/h (0 Bft)
25.02.2015 07:30 -0,7 C 1,1 C 76 % 76 % 1020,0 hPa 0,0 l/m 1,0 km/h (0 Bft) S 180 -4,4 C -1,4 C 0,0 km/h (0 Bft)
25.02.2015 07:35 -0,6 C 1,1 C 76 % 76 % 1020,2 hPa 0,0 l/m 1,6 km/h (1 Bft) S 180 -4,3 C -1,4 C 2,6 km/h (1 Bft)
25.02.2015 07:40 -0,4 C 1,1 C 76 % 76 % 1020,2 hPa 0,0 l/m 2,7 km/h (1 Bft) S-SW 202 -4,1 C -1,6 C 4,7 km/h (1 Bft)
25.02.2015 07:45 -0,3 C 1,1 C 76 % 76 % 1020,2 hPa 0,0 l/m 3,1 km/h (1 Bft) S 180 -4,0 C -1,6 C 3,9 km/h (1 Bft)
25.02.2015 07:50 -0,2 C 1,1 C 76 % 76 % 1020,2 hPa 0,0 l/m 3,2 km/h (1 Bft) S 180 -3,9 C -1,6 C 4,2 km/h (1 Bft)
25.02.2015 07:55 -0,1 C 1,1 C 76 % 76 % 1020,4 hPa 0,0 l/m 3,5 km/h (1 Bft) S 180 -3,8 C -1,6 C 3,9 km/h (1 Bft)
25.02.2015 08:00 0,0 C 1,1 C 75 % 75 % 1020,4 hPa 0,0 l/m 4,2 km/h (1 Bft) W-SW 247 -3,9 C -1,7 C 3,9 km/h (1 Bft)
25.02.2015 08:05 0,1 C 1,1 C 75 % 75 % 1020,4 hPa 0,0 l/m 3,7 km/h (1 Bft) SW 225 -3,8 C -1,3 C 3,1 km/h (1 Bft)
25.02.2015 08:10 0,2 C 1,1 C 75 % 75 % 1020,4 hPa 0,0 l/m 3,1 km/h (1 Bft) S 180 -3,7 C -0,8 C 5,0 km/h (1 Bft)
25.02.2015 08:15 0,3 C 1,1 C 75 % 75 % 1020,5 hPa 0,0 l/m 3,2 km/h (1 Bft) S-SW 202 -3,6 C -0,6 C 3,9 km/h (1 Bft)
25.02.2015 08:20 0,5 C 1,1 C 75 % 75 % 1020,5 hPa 0,0 l/m 2,9 km/h (1 Bft) W-SW 247 -3,4 C -0,2 C 3,1 km/h (1 Bft)
25.02.2015 08:25 0,6 C 1,1 C 74 % 74 % 1020,5 hPa 0,0 l/m 3,2 km/h (1 Bft) S-SW 202 -3,5 C -0,3 C 6,0 km/h (2 Bft)
25.02.2015 08:30 0,8 C 1,1 C 74 % 74 % 1020,5 hPa 0,0 l/m 2,7 km/h (1 Bft) W-SW 247 -3,3 C 0,3 C 7,6 km/h (2 Bft)
25.02.2015 08:35 0,9 C 1,1 C 74 % 74 % 1020,6 hPa 0,0 l/m 2,3 km/h (1 Bft) S 180 -3,2 C 0,8 C 3,4 km/h (1 Bft)
25.02.2015 08:40 1,0 C 1,0 C 73 % 73 % 1020,6 hPa 0,0 l/m 2,4 km/h (1 Bft) W-SW 247 -3,3 C 1,0 C 5,6 km/h (1 Bft)
25.02.2015 08:45 1,0 C 1,0 C 73 % 73 % 1020,6 hPa 0,0 l/m 3,2 km/h (1 Bft) S-SW 202 -3,3 C 0,6 C 4,3 km/h (1 Bft)
25.02.2015 08:50 1,1 C 1,0 C 73 % 73 % 1020,6 hPa 0,0 l/m 3,5 km/h (1 Bft) W-SW 247 -3,2 C 0,6 C 2,9 km/h (1 Bft)
25.02.2015 08:55 1,1 C 1,0 C 73 % 73 % 1020,6 hPa 0,0 l/m 3,2 km/h (1 Bft) SW 225 -3,2 C 0,8 C 3,4 km/h (1 Bft)
25.02.2015 09:00 1,1 C 1,0 C 72 % 72 % 1020,6 hPa 0,0 l/m 3,2 km/h (1 Bft) W-SW 247 -3,4 C 0,8 C 4,3 km/h (1 Bft)
25.02.2015 09:05 1,1 C 1,0 C 72 % 72 % 1020,6 hPa 0,0 l/m 3,7 km/h (1 Bft) W-NW 292 -3,4 C 0,7 C 4,7 km/h (1 Bft)
25.02.2015 09:10 1,2 C 1,0 C 72 % 72 % 1020,6 hPa 0,0 l/m 3,9 km/h (1 Bft) SW 225 -3,3 C 0,6 C 10,1 km/h (2 Bft)
25.02.2015 09:15 1,3 C 1,0 C 72 % 72 % 1020,8 hPa 0,0 l/m 3,9 km/h (1 Bft) W 270 -3,2 C 0,7 C 2,4 km/h (1 Bft)
25.02.2015 09:20 1,5 C 1,0 C 72 % 72 % 1020,8 hPa 0,0 l/m 3,1 km/h (1 Bft) SW 225 -3,0 C 1,3 C 2,3 km/h (1 Bft)
25.02.2015 09:25 1,7 C 1,0 C 72 % 72 % 1020,8 hPa 0,0 l/m 2,3 km/h (1 Bft) S-SW 202 -2,8 C 1,8 C 4,5 km/h (1 Bft)
25.02.2015 09:30 2,0 C 1,0 C 71 % 71 % 1020,8 hPa 0,0 l/m 2,6 km/h (1 Bft) S-SW 202 -2,7 C 2,2 C 4,0 km/h (1 Bft)
25.02.2015 09:35 2,1 C 1,0 C 71 % 71 % 1020,9 hPa 0,0 l/m 3,2 km/h (1 Bft) SW 225 -2,6 C 2,2 C 2,9 km/h (1 Bft)
25.02.2015 09:40 2,3 C 1,1 C 69 % 69 % 1020,9 hPa 0,0 l/m 3,2 km/h (1 Bft) W-SW 247 -2,8 C 2,6 C 2,7 km/h (1 Bft)
25.02.2015 09:45 2,4 C 1,1 C 69 % 69 % 1020,9 hPa 0,0 l/m 3,1 km/h (1 Bft) SW 225 -2,7 C 2,9 C 3,5 km/h (1 Bft)
25.02.2015 09:50 2,8 C 1,1 C 68 % 68 % 1020,9 hPa 0,0 l/m 3,1 km/h (1 Bft) S 180 -2,5 C 3,3 C 3,9 km/h (1 Bft)
25.02.2015 09:55 2,5 C 1,1 C 67 % 67 % 1020,8 hPa 0,0 l/m 4,0 km/h (1 Bft) W 270 -3,0 C 2,9 C 4,2 km/h (1 Bft)
25.02.2015 10:00 2,5 C 1,1 C 67 % 67 % 1020,8 hPa 0,0 l/m 4,5 km/h (1 Bft) W 270 -3,0 C 2,6 C 11,7 km/h (2 Bft)
25.02.2015 10:05 2,2 C 1,1 C 67 % 67 % 1020,8 hPa 0,0 l/m 4,5 km/h (1 Bft) W-SW 247 -3,3 C 2,3 C 3,1 km/h (1 Bft)
25.02.2015 10:10 2,1 C 1,0 C 67 % 67 % 1020,8 hPa 0,0 l/m 5,3 km/h (1 Bft) W-SW 247 -3,4 C 1,8 C 7,7 km/h (2 Bft)
25.02.2015 10:15 2,2 C 1,0 C 67 % 67 % 1020,9 hPa 0,0 l/m 5,3 km/h (1 Bft) W-NW 292 -3,3 C 1,6 C 6,8 km/h (2 Bft)
25.02.2015 10:20 2,5 C 1,1 C 67 % 67 % 1020,9 hPa 0,0 l/m 5,0 km/h (1 Bft) W-SW 247 -3,0 C 1,8 C 6,9 km/h (2 Bft)
25.02.2015 10:25 2,9 C 1,1 C 67 % 67 % 1020,9 hPa 0,0 l/m 4,2 km/h (1 Bft) W-SW 247 -2,6 C 2,5 C 7,2 km/h (2 Bft)
25.02.2015 10:30 3,5 C 1,1 C 67 % 67 % 1020,9 hPa 0,0 l/m 3,9 km/h (1 Bft) SW 225 -2,0 C 3,7 C 3,9 km/h (1 Bft)
25.02.2015 10:35 3,7 C 1,1 C 65 % 65 % 1021,0 hPa 0,0 l/m 4,3 km/h (1 Bft) W 270 -2,3 C 4,1 C 5,1 km/h (1 Bft)
25.02.2015 10:40 3,6 C 1,1 C 63 % 63 % 1021,0 hPa 0,0 l/m 5,5 km/h (1 Bft) SW 225 -2,8 C 4,2 C 6,1 km/h (2 Bft)
25.02.2015 10:45 3,7 C 1,1 C 63 % 63 % 1021,0 hPa 0,0 l/m 6,1 km/h (2 Bft) W 270 -2,7 C 4,0 C 9,0 km/h (2 Bft)
25.02.2015 10:50 4,2 C 1,1 C 62 % 62 % 1021,0 hPa 0,0 l/m 5,1 km/h (1 Bft) W 270 -2,4 C 4,8 C 10,9 km/h (2 Bft)
25.02.2015 10:55 4,3 C 1,1 C 61 % 61 % 1021,1 hPa 0,0 l/m 5,0 km/h (1 Bft) W-SW 247 -2,5 C 5,2 C 6,8 km/h (2 Bft)
25.02.2015 11:00 4,4 C 1,1 C 60 % 60 % 1021,1 hPa 0,0 l/m 6,1 km/h (2 Bft) W 270 -2,7 C 4,7 C 7,4 km/h (2 Bft)
25.02.2015 11:05 4,1 C 1,1 C 60 % 60 % 1021,1 hPa 0,0 l/m 6,0 km/h (2 Bft) NW 315 -3,0 C 4,9 C 9,0 km/h (2 Bft)
25.02.2015 11:10 3,9 C 1,1 C 59 % 59 % 1021,1 hPa 0,0 l/m 5,6 km/h (1 Bft) W 270 -3,4 C 4,7 C 11,9 km/h (2 Bft)
25.02.2015 11:15 4,2 C 1,1 C 60 % 60 % 1021,0 hPa 0,0 l/m 5,1 km/h (1 Bft) W 270 -2,9 C 4,9 C 5,0 km/h (1 Bft)
25.02.2015 11:20 4,1 C 1,1 C 59 % 59 % 1021,0 hPa 0,0 l/m 4,3 km/h (1 Bft) W 270 -3,2 C 5,3 C 4,5 km/h (1 Bft)
25.02.2015 11:25 4,2 C 1,1 C 59 % 59 % 1021,0 hPa 0,0 l/m 5,1 km/h (1 Bft) W-SW 247 -3,1 C 4,8 C 6,1 km/h (2 Bft)
25.02.2015 11:30 3,9 C 1,1 C 59 % 59 % 1021,0 hPa 0,0 l/m 5,3 km/h (1 Bft) W-NW 292 -3,4 C 4,7 C 6,1 km/h (2 Bft)
25.02.2015 11:35 4,2 C 1,1 C 59 % 59 % 1021,1 hPa 0,0 l/m 5,1 km/h (1 Bft) W-SW 247 -3,1 C 4,7 C 8,0 km/h (2 Bft)
25.02.2015 11:40 3,8 C 1,1 C 59 % 59 % 1021,1 hPa 0,0 l/m 4,8 km/h (1 Bft) NW 315 -3,5 C 4,8 C 6,4 km/h (2 Bft)
25.02.2015 11:45 3,8 C 1,1 C 60 % 60 % 1021,1 hPa 0,0 l/m 4,7 km/h (1 Bft) NW 315 -3,2 C 4,9 C 7,6 km/h (2 Bft)
25.02.2015 11:50 3,8 C 1,1 C 60 % 60 % 1021,1 hPa 0,0 l/m 4,5 km/h (1 Bft) W 270 -3,2 C 4,9 C 7,1 km/h (2 Bft)
25.02.2015 11:55 4,1 C 1,1 C 60 % 60 % 1021,1 hPa 0,0 l/m 4,7 km/h (1 Bft) NW 315 -3,0 C 4,9 C 3,9 km/h (1 Bft)
25.02.2015 12:00 4,5 C 1,1 C 59 % 59 % 1021,1 hPa 0,0 l/m 4,3 km/h (1 Bft) NW 315 -2,8 C 5,9 C 3,1 km/h (1 Bft)
25.02.2015 12:05 4,7 C 1,1 C 59 % 59 % 1021,1 hPa 0,0 l/m 4,0 km/h (1 Bft) W 270 -2,6 C 6,2 C 2,7 km/h (1 Bft)
25.02.2015 12:10 4,6 C 1,1 C 59 % 59 % 1021,1 hPa 0,0 l/m 3,4 km/h (1 Bft) W 270 -2,7 C 6,7 C 2,6 km/h (1 Bft)
25.02.2015 12:15 4,6 C 1,1 C 59 % 59 % 1021,2 hPa 0,0 l/m 3,4 km/h (1 Bft) W-NW 292 -2,7 C 6,7 C 2,1 km/h (1 Bft)
25.02.2015 12:20 4,6 C 1,0 C 59 % 59 % 1021,2 hPa 0,0 l/m 3,2 km/h (1 Bft) W-NW 292 -2,7 C 6,7 C 4,7 km/h (1 Bft)
25.02.2015 12:25 4,5 C 1,1 C 58 % 58 % 1021,2 hPa 0,0 l/m 3,9 km/h (1 Bft) W 270 -3,0 C 6,2 C 4,3 km/h (1 Bft)
25.02.2015 12:30 5,0 C 1,0 C 58 % 58 % 1021,2 hPa 0,0 l/m 3,9 km/h (1 Bft) W-NW 292 -2,6 C 6,4 C 1,8 km/h (1 Bft)
25.02.2015 12:35 4,9 C 1,0 C 58 % 58 % 1021,2 hPa 0,0 l/m 3,5 km/h (1 Bft) W 270 -2,7 C 6,7 C 3,7 km/h (1 Bft)
25.02.2015 12:40 5,1 C 1,0 C 58 % 58 % 1021,2 hPa 0,0 l/m 3,7 km/h (1 Bft) W 270 -2,5 C 7,0 C 5,1 km/h (1 Bft)
25.02.2015 12:45 5,0 C 1,0 C 58 % 58 % 1021,2 hPa 0,0 l/m 3,5 km/h (1 Bft) NW 315 -2,6 C 7,1 C 2,3 km/h (1 Bft)
25.02.2015 12:50 5,3 C 1,0 C 58 % 58 % 1021,2 hPa 0,0 l/m 3,1 km/h (1 Bft) NW 315 -2,3 C 7,5 C 3,1 km/h (1 Bft)
25.02.2015 12:55 5,2 C 1,0 C 58 % 58 % 1021,1 hPa 0,0 l/m 3,1 km/h (1 Bft) W-NW 292 -2,4 C 7,5 C 3,2 km/h (1 Bft)
25.02.2015 13:00 5,1 C 1,0 C 58 % 58 % 1021,1 hPa 0,0 l/m 3,1 km/h (1 Bft) W 270 -2,5 C 7,4 C 2,6 km/h (1 Bft)
25.02.2015 13:05 5,0 C 1,0 C 57 % 57 % 1021,1 hPa 0,0 l/m 3,1 km/h (1 Bft) W-NW 292 -2,8 C 7,4 C 4,0 km/h (1 Bft)
25.02.2015 13:10 5,5 C 1,0 C 58 % 58 % 1021,1 hPa 0,0 l/m 2,6 km/h (1 Bft) NW 315 -2,1 C 7,3 C 2,7 km/h (1 Bft)
25.02.2015 13:15 5,6 C 1,0 C 57 % 57 % 1021,0 hPa 0,0 l/m 2,4 km/h (1 Bft) W 270 -2,2 C 7,4 C 3,4 km/h (1 Bft)
25.02.2015 13:20 5,5 C 1,0 C 57 % 57 % 1021,0 hPa 0,0 l/m 2,6 km/h (1 Bft) W-NW 292 -2,3 C 7,4 C 3,5 km/h (1 Bft)
25.02.2015 13:25 5,5 C 1,0 C 57 % 57 % 1021,0 hPa 0,0 l/m 2,9 km/h (1 Bft) W 270 -2,3 C 7,4 C 3,5 km/h (1 Bft)
25.02.2015 13:30 6,1 C 1,0 C 57 % 57 % 1021,0 hPa 0,0 l/m 3,1 km/h (1 Bft) W-NW 292 -1,8 C 7,4 C 2,6 km/h (1 Bft)
25.02.2015 13:35 6,2 C 1,0 C 56 % 56 % 1021,1 hPa 0,0 l/m 2,7 km/h (1 Bft) W-SW 247 -1,9 C 7,6 C 1,9 km/h (1 Bft)
25.02.2015 13:40 6,5 C 1,0 C 56 % 56 % 1021,1 hPa 0,0 l/m 1,4 km/h (1 Bft) N-NO 22 -1,6 C 8,3 C 2,4 km/h (1 Bft)
25.02.2015 13:45 6,9 C 1,0 C 56 % 56 % 1021,1 hPa 0,0 l/m 1,6 km/h (1 Bft) NW 315 -1,3 C 8,6 C 4,3 km/h (1 Bft)
25.02.2015 13:50 7,7 C 1,1 C 56 % 56 % 1021,1 hPa 0,0 l/m 1,4 km/h (1 Bft) W 270 -0,5 C 9,1 C 2,7 km/h (1 Bft)
25.02.2015 13:55 7,9 C 1,1 C 56 % 56 % 1021,3 hPa 0,0 l/m 1,1 km/h (1 Bft) W 270 -0,3 C 9,6 C 0,0 km/h (0 Bft)
25.02.2015 14:00 6,4 C 1,1 C 56 % 56 % 1021,3 hPa 0,0 l/m 0,5 km/h (0 Bft) N-NW 337 -1,7 C 9,3 C 0,0 km/h (0 Bft)
25.02.2015 14:05 6,4 C 1,1 C 56 % 56 % 1021,3 hPa 0,0 l/m 0,3 km/h (0 Bft) N-NW 337 -1,7 C 9,0 C 2,7 km/h (1 Bft)
25.02.2015 14:10 6,2 C 1,1 C 56 % 56 % 1021,3 hPa 0,0 l/m 0,3 km/h (0 Bft) W 270 -1,9 C 8,3 C 1,6 km/h (1 Bft)
25.02.2015 14:15 6,0 C 1,0 C 56 % 56 % 1021,0 hPa 0,0 l/m 1,0 km/h (0 Bft) W-SW 247 -2,1 C 8,2 C 1,9 km/h (1 Bft)
25.02.2015 14:20 6,3 C 1,0 C 56 % 56 % 1021,0 hPa 0,0 l/m 1,6 km/h (1 Bft) NW 315 -1,8 C 7,8 C 0,0 km/h (0 Bft)
25.02.2015 14:25 6,2 C 1,0 C 56 % 56 % 1021,0 hPa 0,0 l/m 1,4 km/h (1 Bft) NW 315 -1,9 C 8,0 C 3,4 km/h (1 Bft)
25.02.2015 14:30 6,4 C 1,0 C 56 % 56 % 1021,0 hPa 0,0 l/m 0,8 km/h (0 Bft) W 270 -1,7 C 8,1 C 2,1 km/h (1 Bft)
25.02.2015 14:35 6,6 C 1,0 C 56 % 56 % 1020,8 hPa 0,0 l/m 0,8 km/h (0 Bft) W-NW 292 -1,5 C 8,2 C 0,0 km/h (0 Bft)
25.02.2015 14:40 5,3 C 1,0 C 55 % 55 % 1020,8 hPa 0,0 l/m 1,0 km/h (0 Bft) N-NW 337 -3,0 C 7,9 C 5,3 km/h (1 Bft)
25.02.2015 14:45 4,2 C 1,0 C 56 % 56 % 1020,8 hPa 0,0 l/m 1,9 km/h (1 Bft) NO 45 -3,8 C 6,9 C 3,2 km/h (1 Bft)
25.02.2015 14:50 3,4 C 1,1 C 58 % 58 % 1020,8 hPa 0,0 l/m 3,5 km/h (1 Bft) NW 315 -4,1 C 5,1 C 5,6 km/h (1 Bft)
25.02.2015 14:55 3,0 C 1,1 C 59 % 59 % 1020,9 hPa 0,0 l/m 3,1 km/h (1 Bft) N-NO 22 -4,2 C 4,3 C 3,7 km/h (1 Bft)
25.02.2015 15:00 2,8 C 1,1 C 61 % 61 % 1020,9 hPa 0,0 l/m 2,6 km/h (1 Bft) N 360 -4,0 C 3,3 C 4,5 km/h (1 Bft)
25.02.2015 15:05 2,6 C 1,1 C 63 % 63 % 1020,9 hPa 0,0 l/m 2,9 km/h (1 Bft) N-NO 22 -3,7 C 2,8 C 2,6 km/h (1 Bft)
25.02.2015 15:10 2,4 C 1,1 C 64 % 64 % 1020,9 hPa 0,0 l/m 2,9 km/h (1 Bft) N-NW 337 -3,7 C 2,3 C 0,0 km/h (0 Bft)
25.02.2015 15:15 2,4 C 1,1 C 65 % 65 % 1020,9 hPa 0,0 l/m 1,8 km/h (1 Bft) NO 45 -3,5 C 2,4 C 2,4 km/h (1 Bft)
25.02.2015 15:20 2,3 C 1,1 C 66 % 66 % 1020,9 hPa 0,0 l/m 1,3 km/h (1 Bft) NW 315 -3,4 C 2,2 C 0,0 km/h (0 Bft)
25.02.2015 15:25 2,4 C 1,1 C 66 % 66 % 1020,9 hPa 0,0 l/m 1,3 km/h (1 Bft) N-NW 337 -3,3 C 2,2 C 1,8 km/h (1 Bft)
25.02.2015 15:30 2,5 C 1,1 C 66 % 66 % 1020,9 hPa 0,0 l/m 0,6 km/h (0 Bft) N 360 -3,2 C 2,2 C 0,0 km/h (0 Bft)
25.02.2015 15:35 2,5 C 1,1 C 66 % 66 % 1020,8 hPa 0,0 l/m 0,8 km/h (0 Bft) N-NO 22 -3,2 C 2,3 C 2,4 km/h (1 Bft)
25.02.2015 15:40 2,5 C 1,1 C 66 % 66 % 1020,8 hPa 0,0 l/m 0,8 km/h (0 Bft) N-NW 337 -3,2 C 2,4 C 2,1 km/h (1 Bft)
25.02.2015 15:45 2,5 C 1,1 C 67 % 67 % 1020,8 hPa 0,0 l/m 0,8 km/h (0 Bft) N-NW 337 -3,0 C 2,5 C 0,0 km/h (0 Bft)
25.02.2015 15:50 2,5 C 1,1 C 67 % 67 % 1020,8 hPa 0,0 l/m 1,0 km/h (0 Bft) NW 315 -3,0 C 2,6 C 0,0 km/h (0 Bft)
25.02.2015 15:55 2,4 C 1,1 C 67 % 67 % 1020,9 hPa 0,0 l/m 0,6 km/h (0 Bft) NW 315 -3,1 C 2,6 C 0,0 km/h (0 Bft)
25.02.2015 16:00 2,7 C 1,1 C 67 % 67 % 1020,9 hPa 0,0 l/m 0,0 km/h (0 Bft) NW 315 -2,8 C 2,8 C 0,0 km/h (0 Bft)
25.02.2015 16:05 3,1 C 1,1 C 67 % 67 % 1020,9 hPa 0,0 l/m 0,0 km/h (0 Bft) NW 315 -2,4 C 2,9 C 0,0 km/h (0 Bft)
25.02.2015 16:10 3,1 C 1,1 C 67 % 67 % 1020,9 hPa 0,0 l/m 0,0 km/h (0 Bft) NW 315 -2,4 C 3,3 C 0,0 km/h (0 Bft)
25.02.2015 16:15 3,2 C 1,1 C 67 % 67 % 1020,9 hPa 0,0 l/m 0,0 km/h (0 Bft) NW 315 -2,3 C 3,3 C 0,0 km/h (0 Bft)
25.02.2015 16:20 3,1 C 1,1 C 68 % 68 % 1020,9 hPa 0,0 l/m 0,0 km/h (0 Bft) NW 315 -2,2 C 3,4 C 0,0 km/h (0 Bft)
25.02.2015 16:25 3,0 C 1,1 C 68 % 68 % 1020,9 hPa 0,0 l/m 0,0 km/h (0 Bft) NW 315 -2,3 C 3,4 C 0,0 km/h (0 Bft)
25.02.2015 16:30 3,2 C 1,1 C 68 % 68 % 1020,9 hPa 0,0 l/m 0,0 km/h (0 Bft) NW 315 -2,1 C 3,4 C 0,0 km/h (0 Bft)
25.02.2015 16:35 3,1 C 1,1 C 68 % 68 % 1020,9 hPa 0,0 l/m 0,0 km/h (0 Bft) NW 315 -2,2 C 3,4 C 0,0 km/h (0 Bft)
25.02.2015 16:40 2,8 C 1,1 C 68 % 68 % 1020,9 hPa 0,0 l/m 0,0 km/h (0 Bft) NW 315 -2,5 C 3,3 C 0,0 km/h (0 Bft)
25.02.2015 16:45 2,6 C 1,1 C 68 % 68 % 1020,9 hPa 0,0 l/m 0,0 km/h (0 Bft) NW 315 -2,7 C 3,2 C 0,0 km/h (0 Bft)
25.02.2015 16:50 2,3 C 1,1 C 68 % 68 % 1020,9 hPa 0,0 l/m 0,3 km/h (0 Bft) NW 315 -3,0 C 2,8 C 2,4 km/h (1 Bft)
25.02.2015 16:55 2,2 C 1,1 C 68 % 68 % 1020,9 hPa 0,0 l/m 1,1 km/h (1 Bft) NW 315 -3,1 C 2,6 C 2,3 km/h (1 Bft)
25.02.2015 17:00 1,9 C 1,0 C 69 % 69 % 1020,9 hPa 0,0 l/m 2,1 km/h (1 Bft) W-NW 292 -3,2 C 2,1 C 2,7 km/h (1 Bft)
25.02.2015 17:05 1,8 C 1,0 C 69 % 69 % 1020,9 hPa 0,0 l/m 2,4 km/h (1 Bft) SW 225 -3,3 C 1,8 C 2,7 km/h (1 Bft)
25.02.2015 17:10 1,7 C 1,0 C 70 % 70 % 1020,9 hPa 0,0 l/m 2,7 km/h (1 Bft) S-SW 202 -3,2 C 1,4 C 2,7 km/h (1 Bft)
25.02.2015 17:15 1,5 C 1,0 C 70 % 70 % 1020,9 hPa 0,0 l/m 2,4 km/h (1 Bft) S-SW 202 -3,4 C 1,3 C 1,6 km/h (1 Bft)
25.02.2015 17:20 1,2 C 1,0 C 71 % 71 % 1020,9 hPa 0,0 l/m 1,1 km/h (1 Bft) S-SW 202 -3,5 C 1,0 C 0,0 km/h (0 Bft)
25.02.2015 17:25 1,1 C 1,0 C 71 % 71 % 1020,9 hPa 0,0 l/m 0,2 km/h (0 Bft) S 180 -3,6 C 0,7 C 0,0 km/h (0 Bft)
25.02.2015 17:30 0,9 C 1,1 C 72 % 72 % 1020,9 hPa 0,0 l/m 0,0 km/h (0 Bft) S 180 -3,6 C 0,3 C 0,0 km/h (0 Bft)
25.02.2015 17:35 0,7 C 1,1 C 72 % 72 % 1020,9 hPa 0,0 l/m 0,0 km/h (0 Bft) S 180 -3,8 C 0,2 C 0,0 km/h (0 Bft)
25.02.2015 17:40 0,6 C 1,1 C 73 % 73 % 1020,9 hPa 0,0 l/m 0,0 km/h (0 Bft) S 180 -3,7 C -0,1 C 0,0 km/h (0 Bft)
25.02.2015 17:45 0,4 C 1,1 C 73 % 73 % 1020,9 hPa 0,0 l/m 0,0 km/h (0 Bft) S 180 -3,9 C -0,3 C 0,0 km/h (0 Bft)
25.02.2015 17:50 0,2 C 1,1 C 74 % 74 % 1020,9 hPa 0,0 l/m 0,0 km/h (0 Bft) S 180 -3,9 C -0,6 C 0,0 km/h (0 Bft)
25.02.2015 17:55 0,1 C 1,1 C 74 % 74 % 1021,0 hPa 0,0 l/m 0,0 km/h (0 Bft) S 180 -4,0 C -0,8 C 0,0 km/h (0 Bft)
25.02.2015 18:00 0,0 C 1,1 C 75 % 75 % 1021,0 hPa 0,0 l/m 0,0 km/h (0 Bft) S 180 -3,9 C -1,0 C 0,0 km/h (0 Bft)
25.02.2015 18:05 -0,1 C 1,1 C 76 % 76 % 1021,0 hPa 0,0 l/m 0,0 km/h (0 Bft) S 180 -3,8 C -1,1 C 0,0 km/h (0 Bft)
25.02.2015 18:10 -0,2 C 1,1 C 76 % 76 % 1021,0 hPa 0,0 l/m 0,0 km/h (0 Bft) S 180 -3,9 C -1,3 C 1,6 km/h (1 Bft)
25.02.2015 18:15 -0,2 C 1,1 C 76 % 76 % 1021,3 hPa 0,0 l/m 0,3 km/h (0 Bft) S 180 -3,9 C -1,4 C 1,6 km/h (1 Bft)
25.02.2015 18:20 -0,4 C 1,1 C 76 % 76 % 1021,3 hPa 0,0 l/m 0,3 km/h (0 Bft) S 180 -4,1 C -1,4 C 0,0 km/h (0 Bft)
25.02.2015 18:25 -0,5 C 1,1 C 77 % 77 % 1021,3 hPa 0,0 l/m 0,0 km/h (0 Bft) S 180 -4,0 C -1,6 C 0,0 km/h (0 Bft)
25.02.2015 18:30 -0,6 C 1,1 C 77 % 77 % 1021,3 hPa 0,0 l/m 0,0 km/h (0 Bft) S 180 -4,1 C -1,8 C 0,0 km/h (0 Bft)
25.02.2015 18:35 -0,8 C 1,1 C 77 % 77 % 1021,4 hPa 0,0 l/m 0,0 km/h (0 Bft) S 180 -4,3 C -1,8 C 0,0 km/h (0 Bft)
25.02.2015 18:40 -1,1 C 1,1 C 77 % 77 % 1021,4 hPa 0,0 l/m 0,0 km/h (0 Bft) S 180 -4,6 C -2,1 C 0,0 km/h (0 Bft)
25.02.2015 18:45 -1,4 C 1,1 C 77 % 77 % 1021,4 hPa 0,0 l/m 0,0 km/h (0 Bft) S 180 -4,9 C -2,5 C 0,0 km/h (0 Bft)
25.02.2015 18:50 -1,8 C 1,1 C 77 % 77 % 1021,4 hPa 0,0 l/m 0,0 km/h (0 Bft) S 180 -5,3 C -2,9 C 0,0 km/h (0 Bft)
25.02.2015 18:55 -1,8 C 1,1 C 78 % 78 % 1021,6 hPa 0,0 l/m 0,0 km/h (0 Bft) S 180 -5,1 C -3,2 C 0,0 km/h (0 Bft)
25.02.2015 19:00 -2,1 C 1,1 C 78 % 78 % 1021,6 hPa 0,0 l/m 0,0 km/h (0 Bft) S 180 -5,4 C -3,4 C 0,0 km/h (0 Bft)
25.02.2015 19:05 -2,4 C 1,1 C 78 % 78 % 1021,6 hPa 0,0 l/m 0,0 km/h (0 Bft) S 180 -5,7 C -3,7 C 0,0 km/h (0 Bft)
25.02.2015 19:10 -2,5 C 1,0 C 78 % 78 % 1021,6 hPa 0,0 l/m 0,0 km/h (0 Bft) S 180 -5,8 C -3,8 C 0,0 km/h (0 Bft)
25.02.2015 19:15 -2,6 C 1,0 C 78 % 78 % 1021,5 hPa 0,0 l/m 0,0 km/h (0 Bft) S 180 -5,9 C -4,1 C 0,0 km/h (0 Bft)
25.02.2015 19:20 -2,8 C 1,0 C 78 % 78 % 1021,5 hPa 0,0 l/m 0,0 km/h (0 Bft) S 180 -6,1 C -4,2 C 0,0 km/h (0 Bft)
25.02.2015 19:25 -2,8 C 1,0 C 79 % 79 % 1021,5 hPa 0,0 l/m 0,0 km/h (0 Bft) S 180 -5,9 C -4,3 C 0,0 km/h (0 Bft)
25.02.2015 19:30 -2,9 C 1,0 C 79 % 79 % 1021,5 hPa 0,0 l/m 0,0 km/h (0 Bft) S 180 -6,0 C -4,4 C 0,0 km/h (0 Bft)
25.02.2015 19:35 -2,9 C 1,0 C 79 % 79 % 1021,6 hPa 0,0 l/m 0,0 km/h (0 Bft) S 180 -6,0 C -4,5 C 0,0 km/h (0 Bft)
25.02.2015 19:40 -3,2 C 1,0 C 79 % 79 % 1021,6 hPa 0,0 l/m 0,0 km/h (0 Bft) S 180 -6,3 C -4,5 C 0,0 km/h (0 Bft)
25.02.2015 19:45 -3,3 C 1,0 C 79 % 79 % 1021,6 hPa 0,0 l/m 0,0 km/h (0 Bft) S 180 -6,4 C -4,6 C 0,0 km/h (0 Bft)
25.02.2015 19:50 -3,1 C 1,0 C 80 % 80 % 1021,6 hPa 0,0 l/m 0,0 km/h (0 Bft) S 180 -6,0 C -4,6 C 0,0 km/h (0 Bft)
25.02.2015 19:55 -3,1 C 1,0 C 80 % 80 % 1021,6 hPa 0,0 l/m 0,0 km/h (0 Bft) S 180 -6,0 C -4,5 C 0,0 km/h (0 Bft)
25.02.2015 20:00 -3,8 C 1,0 C 80 % 80 % 1021,6 hPa 0,0 l/m 0,0 km/h (0 Bft) S 180 -6,7 C -4,7 C 0,0 km/h (0 Bft)
25.02.2015 20:05 -3,9 C 1,0 C 80 % 80 % 1021,6 hPa 0,0 l/m 0,0 km/h (0 Bft) S 180 -6,8 C -5,0 C 0,0 km/h (0 Bft)
25.02.2015 20:10 -3,7 C 1,0 C 80 % 80 % 1021,6 hPa 0,0 l/m 0,0 km/h (0 Bft) S 180 -6,6 C -5,1 C 0,0 km/h (0 Bft)
25.02.2015 20:15 -3,8 C 1,0 C 80 % 80 % 1021,6 hPa 0,0 l/m 0,0 km/h (0 Bft) S 180 -6,7 C -5,1 C 0,0 km/h (0 Bft)
25.02.2015 20:20 -4,2 C 1,1 C 80 % 80 % 1021,6 hPa 0,0 l/m 0,0 km/h (0 Bft) S 180 -7,1 C -5,3 C 0,0 km/h (0 Bft)
25.02.2015 20:25 -3,9 C 1,1 C 81 % 81 % 1021,6 hPa 0,0 l/m 0,2 km/h (0 Bft) S-SO 157 -6,7 C -5,3 C 1,6 km/h (1 Bft)
25.02.2015 20:30 -3,7 C 1,0 C 82 % 82 % 1021,6 hPa 0,0 l/m 0,3 km/h (0 Bft) S-SO 157 -6,3 C -4,9 C 0,0 km/h (0 Bft)
25.02.2015 20:35 -3,7 C 1,0 C 82 % 82 % 1021,8 hPa 0,0 l/m 0,2 km/h (0 Bft) S-SO 157 -6,3 C -4,8 C 0,0 km/h (0 Bft)
25.02.2015 20:40 -4,3 C 1,1 C 82 % 82 % 1021,8 hPa 0,0 l/m 0,0 km/h (0 Bft) S-SO 157 -6,9 C -5,2 C 0,0 km/h (0 Bft)
25.02.2015 20:45 -4,1 C 1,1 C 82 % 82 % 1021,8 hPa 0,0 l/m 0,0 km/h (0 Bft) S-SO 157 -6,7 C -5,4 C 0,0 km/h (0 Bft)
25.02.2015 20:50 -4,0 C 1,0 C 82 % 82 % 1021,8 hPa 0,0 l/m 0,0 km/h (0 Bft) SO 135 -6,6 C -5,2 C 0,0 km/h (0 Bft)
25.02.2015 20:55 -4,3 C 1,1 C 82 % 82 % 1021,8 hPa 0,0 l/m 0,0 km/h (0 Bft) SO 135 -6,9 C -5,3 C 0,0 km/h (0 Bft)
25.02.2015 21:00 -4,1 C 1,1 C 82 % 82 % 1021,8 hPa 0,0 l/m 0,0 km/h (0 Bft) S-SO 157 -6,7 C -5,4 C 0,0 km/h (0 Bft)
25.02.2015 21:05 -4,1 C 1,1 C 82 % 82 % 1021,8 hPa 0,0 l/m 0,0 km/h (0 Bft) SO 135 -6,7 C -5,4 C 0,0 km/h (0 Bft)
25.02.2015 21:10 -4,1 C 1,1 C 83 % 83 % 1021,8 hPa 0,0 l/m 0,0 km/h (0 Bft) SO 135 -6,5 C -5,3 C 0,0 km/h (0 Bft)
25.02.2015 21:15 -4,1 C 1,0 C 82 % 82 % 1022,1 hPa 0,0 l/m 0,0 km/h (0 Bft) SO 135 -6,7 C -5,3 C 0,0 km/h (0 Bft)
25.02.2015 21:20 -4,5 C 1,1 C 82 % 82 % 1022,1 hPa 0,0 l/m 0,0 km/h (0 Bft) SO 135 -7,1 C -5,4 C 0,0 km/h (0 Bft)
25.02.2015 21:25 -4,7 C 1,1 C 82 % 82 % 1022,1 hPa 0,0 l/m 0,0 km/h (0 Bft) S 180 -7,3 C -5,6 C 0,0 km/h (0 Bft)
25.02.2015 21:30 -4,7 C 1,1 C 82 % 82 % 1022,1 hPa 0,0 l/m 0,0 km/h (0 Bft) SO 135 -7,3 C -5,9 C 0,0 km/h (0 Bft)
25.02.2015 21:35 -5,1 C 1,1 C 82 % 82 % 1022,1 hPa 0,0 l/m 0,0 km/h (0 Bft) SO 135 -7,7 C -6,0 C 0,0 km/h (0 Bft)
25.02.2015 21:40 -5,2 C 1,1 C 82 % 82 % 1022,1 hPa 0,0 l/m 0,0 km/h (0 Bft) SO 135 -7,8 C -6,3 C 0,0 km/h (0 Bft)
25.02.2015 21:45 -5,1 C 1,1 C 82 % 82 % 1022,1 hPa 0,0 l/m 0,0 km/h (0 Bft) SO 135 -7,7 C -6,4 C 0,0 km/h (0 Bft)
25.02.2015 21:50 -5,3 C 1,1 C 82 % 82 % 1022,1 hPa 0,0 l/m 0,0 km/h (0 Bft) SO 135 -7,9 C -6,5 C 0,0 km/h (0 Bft)
25.02.2015 21:55 -5,3 C 1,1 C 82 % 82 % 1022,3 hPa 0,0 l/m 0,0 km/h (0 Bft) S 180 -7,9 C -6,7 C 0,0 km/h (0 Bft)
25.02.2015 22:00 -5,3 C 1,1 C 82 % 82 % 1022,3 hPa 0,0 l/m 0,0 km/h (0 Bft) S-SO 157 -7,9 C -6,5 C 0,0 km/h (0 Bft)
25.02.2015 22:05 -5,3 C 1,1 C 82 % 82 % 1022,3 hPa 0,0 l/m 0,0 km/h (0 Bft) S 180 -7,9 C -6,7 C 0,0 km/h (0 Bft)
25.02.2015 22:10 -5,8 C 1,1 C 82 % 82 % 1022,3 hPa 0,0 l/m 0,0 km/h (0 Bft) S 180 -8,4 C -6,9 C 0,0 km/h (0 Bft)
25.02.2015 22:15 -6,0 C 1,1 C 82 % 82 % 1022,4 hPa 0,0 l/m 0,0 km/h (0 Bft) S-SO 157 -8,6 C -6,8 C 0,0 km/h (0 Bft)
25.02.2015 22:20 -6,1 C 1,1 C 82 % 82 % 1022,4 hPa 0,0 l/m 0,0 km/h (0 Bft) S-SO 157 -8,7 C -7,0 C 0,0 km/h (0 Bft)
25.02.2015 22:25 -6,0 C 1,1 C 82 % 82 % 1022,4 hPa 0,0 l/m 0,0 km/h (0 Bft) S-SO 157 -8,6 C -7,0 C 0,0 km/h (0 Bft)
25.02.2015 22:30 -6,0 C 1,1 C 82 % 82 % 1022,4 hPa 0,0 l/m 0,0 km/h (0 Bft) S-SO 157 -8,6 C -6,8 C 0,0 km/h (0 Bft)
25.02.2015 22:35 -5,9 C 1,1 C 82 % 82 % 1022,4 hPa 0,0 l/m 0,0 km/h (0 Bft) S 180 -8,5 C -6,8 C 0,0 km/h (0 Bft)
25.02.2015 22:40 -5,3 C 1,1 C 82 % 82 % 1022,4 hPa 0,0 l/m 0,0 km/h (0 Bft) S-SO 157 -7,9 C -6,8 C 0,0 km/h (0 Bft)
25.02.2015 22:45 -4,9 C 1,1 C 83 % 83 % 1022,4 hPa 0,0 l/m 0,0 km/h (0 Bft) SO 135 -7,3 C -6,2 C 0,0 km/h (0 Bft)
25.02.2015 22:50 -4,7 C 1,1 C 83 % 83 % 1022,4 hPa 0,0 l/m 0,0 km/h (0 Bft) SO 135 -7,1 C -5,9 C 0,0 km/h (0 Bft)
25.02.2015 22:55 -4,5 C 1,1 C 83 % 83 % 1022,4 hPa 0,0 l/m 0,0 km/h (0 Bft) SO 135 -6,9 C -5,7 C 0,0 km/h (0 Bft)
25.02.2015 23:00 -4,5 C 1,1 C 83 % 83 % 1022,4 hPa 0,0 l/m 0,0 km/h (0 Bft) O-SO 112 -6,9 C -5,5 C 0,0 km/h (0 Bft)
25.02.2015 23:05 -4,7 C 1,1 C 83 % 83 % 1022,4 hPa 0,0 l/m 0,0 km/h (0 Bft) O-SO 112 -7,1 C -5,5 C 0,0 km/h (0 Bft)
25.02.2015 23:10 -4,9 C 1,1 C 83 % 83 % 1022,4 hPa 0,0 l/m 0,0 km/h (0 Bft) N 360 -7,3 C -5,7 C 0,0 km/h (0 Bft)
25.02.2015 23:15 -5,1 C 1,1 C 83 % 83 % 1022,4 hPa 0,0 l/m 0,0 km/h (0 Bft) N 360 -7,5 C -5,9 C 0,0 km/h (0 Bft)
25.02.2015 23:20 -5,2 C 1,1 C 83 % 83 % 1022,4 hPa 0,0 l/m 0,0 km/h (0 Bft) N 360 -7,6 C -6,0 C 0,0 km/h (0 Bft)
25.02.2015 23:25 -5,3 C 1,1 C 83 % 83 % 1022,4 hPa 0,0 l/m 0,0 km/h (0 Bft) N 360 -7,7 C -6,1 C 0,0 km/h (0 Bft)
25.02.2015 23:30 -5,5 C 1,1 C 83 % 83 % 1022,4 hPa 0,0 l/m 0,0 km/h (0 Bft) N 360 -7,9 C -6,2 C 0,0 km/h (0 Bft)
25.02.2015 23:35 -5,7 C 1,1 C 83 % 83 % 1022,4 hPa 0,0 l/m 0,0 km/h (0 Bft) N 360 -8,1 C -6,3 C 0,0 km/h (0 Bft)
25.02.2015 23:40 -5,7 C 1,1 C 83 % 83 % 1022,4 hPa 0,0 l/m 0,0 km/h (0 Bft) N 360 -8,1 C -6,3 C 0,0 km/h (0 Bft)
25.02.2015 23:45 -5,8 C 1,1 C 83 % 83 % 1022,4 hPa 0,0 l/m 0,0 km/h (0 Bft) N-NO 22 -8,2 C -6,5 C 0,0 km/h (0 Bft)
25.02.2015 23:50 -5,8 C 1,1 C 83 % 83 % 1022,4 hPa 0,0 l/m 0,0 km/h (0 Bft) N-NO 22 -8,2 C -6,7 C 0,0 km/h (0 Bft)
25.02.2015 23:55 -6,0 C 1,1 C 83 % 83 % 1022,2 hPa 0,0 l/m 0,0 km/h (0 Bft) N-NO 22 -8,4 C -6,7 C 0,0 km/h (0 Bft)
_ Min-Zeit 22:20 21:15 14:40 14:40 00:50 - 23:55 - - 22:20 22:25 23:55
Minimum _ -6,1 C 1,0 C 55 % 55 % 1018,1 hPa - 0,0 km/h (0 Bft) - - -8,7 C -7,0 C 0,0 km/h (0 Bft)
_ Max-Zeit 13:55 23:55 23:55 23:55 23:50 23:55 11:00 - - 13:55 13:55 11:10
Maximum _ 7,9 C 1,1 C 83 % 83 % 1022,4 hPa 0,0 l/m 6,1 km/h
W (2 Bft)
- - -0,3 C 9,6 C 11,9 km/h
W (2 Bft)
Durchschnitt _ 0,1 C 1,1 C 72 % 72 % 1020,5 hPa #0,0 l/m 1,4 km/h (1 Bft) W - -4,3 C -0,1 C 1,8 km/h (1 Bft)